Skip Page Navigation
NASA JPL Caltech
NASA Logo - Jet Propulsion Laboratory + View the NASA Portal
+ Center for Near-Earth Object Studies
JPL Home Earth Solar System Stars & Galaxies Technology
JPL Solar System Dynamics
BODIES ORBITS EPHEMERIDES TOOLS PHYSICAL DATA DISCOVERY FAQ SITE MAP
JPL Small-Body Database Browser
Search: [ help ]  
137032 (1998 UO1)
Classification: Apollo [NEO]          SPK-ID: 2137032
Ephemeris | Orbit Diagram | Orbital Elements | Mission Design | Physical Parameters | Discovery Circumstances | Close-Approach Data ]

[ hide orbit diagram ]

For accurate long-term ephemerides, please instead use our Horizons system.This orbit viewer was implemented using two-body methods, and hence should not be used for determining accurate long-term trajectories (over several years or decades) or planetary encounter circumstances.


Orbital Elements at Epoch 2459200.5 (2020-Dec-17.0) TDB
Reference: JPL 240 (heliocentric ecliptic J2000)
 Element Value Uncertainty (1-sigma)   Units 
e .7632479733562171 6.2876e-08  
a 1.595485755281328 2.0479e-09 au
q .3777344860441411 1.0027e-07 au
i 25.49854921862438 1.1214e-05 deg
node 358.4513777061276 4.1797e-06 deg
peri 252.4824369130751 1.2147e-05 deg
M 45.71535824497008 4.8584e-06 deg
tp 2459107.024574617236
(2020-Sep-14.52457462)
9.7598e-06 TDB
period 736.1017047590924
2.02
1.4173e-06
3.88e-09
d
yr
n .4890628532341451 9.4163e-10 deg/d
Q 2.813237024518515 3.611e-09 au
  Orbit Determination Parameters
   # obs. used (total)      1464  
   # delay obs. used      5  
   # Doppler obs. used      0  
   data-arc span      10294 days (28.18 yr)  
   first obs. used      1992-10-20  
   last obs. used      2020-12-26  
   planetary ephem.      DE441  
   SB-pert. ephem.      SB441-N16  
   condition code      0  
   norm. resid. RMS      .37099  
   source      ORB  
   producer      Otto Matic  
   solution date      2021-Apr-13 18:20:02  

Additional Information
 Earth MOID = .0589119 au 
 Jupiter MOID = 2.75115 au 
 T_jup = 3.907 
[ show covariance matrix ]

Ephemeris | Orbit Diagram | Orbital Elements | Mission Design | Physical Parameters | Discovery Circumstances | Close-Approach Data ]

Physical Parameter Table
Parameter Symbol Value Units Sigma Reference Notes
absolute magnitude H 16.6   n/a MPO248169  
diameter diameter 1.055 km 0.322 urn:nasa:pds:neowise_diameters_albedos::2.0[neos] (http://adsabs.harvard.edu/abs/2014ApJ...784..110M)  
rotation period rot_per 2.925 h n/a LCDB (Rev. 2020-October); Warner et al., 2009 Result based on less than full coverage, so that the period may be wrong by 30 percent or so.
Published Reference List:
[Pravec, P.; Wolf, M.; Sarounova, L. (2004) http://www.asu.cas.cz/~ppravec/neo.htm]
[Wolters, S.D.; Green, S.F.; McBride, N.; Davies, J.K. (2008) Icarus 193, 535-552.]
[Pravec, P.; Wolf, M.; Sarounova, L. (2014) http://www.asu.cas.cz/~ppravec/neo.htm]
[Warner, B.D. (2015) Minor Planet Bull. 42, 115-127.]
[Warner, B.D. (2017) Minor Planet Bull. 44, 98-107.]
[Skiff, B.A.; McLelland, K.P.; Sanborn, J.J.; Pravec, P.; Koehn, B.W. (2019) Minor Plantet Bull. 46, 238-265.]
geometric albedo albedo 0.183   0.325 urn:nasa:pds:neowise_diameters_albedos::2.0[neos] (http://adsabs.harvard.edu/abs/2014ApJ...784..110M)  

137032 (1998 UO1)          Discovered 1998-Oct-19 by LINEAR at Socorro
Reference: 20061205/Numbers.arcLast Updated: 2006-12-13

[ show close-approach data ]
Ephemeris | Orbit Diagram | Orbital Elements | Mission Design | Physical Parameters | Discovery Circumstances | Close-Approach Data ]
ABOUT SSD CREDITS/AWARDS PRIVACY/COPYRIGHT GLOSSARY LINKS
FirstGov 2021-Apr-22 17:37 UT
(server date/time)  
NASA Home Page
Site Manager:   Ryan S. Park
Webmaster  Alan B. Chamberlin